Temperature
18 18 18 18 15 13 14 15 17 19 21 23 23 23 22 22 21 21 21 21 20 20 19 19 19 19 19 18 18 18 17 17 16 15 15 15 15 15 15 15 14 13 13 13 14 14 14 14 14
17 18 18 17 14 14 14 15 18 18 22 23 24 23 22 21 21 21 21 20 20 20 19 19 19 19 19 19 18 18 18 17 16 15 15 14 15 15 15 15 14 13 13 13 13 14 14 14 14
17 17 17 14 13 13 15 17 19 20 23 23 24 23 22 22 22 22 22 21 20 20 20 19 19 19 19 19 19 19 18 17 16 15 15 15 15 15 15 15 15 14 14 13 13 14 14 14 14
16 16 16 12 14 14 15 17 18 19 22 24 24 22 21 21 22 23 22 21 20 20 20 19 19 19 19 19 19 19 18 17 16 15 15 15 15 15 15 15 15 14 14 14 14 14 14 14 14
15 16 13 13 13 14 15 17 18 18 21 23 23 21 21 21 21 22 22 21 21 20 19 19 18 19 19 19 19 19 18 17 16 15 15 15 15 15 15 15 15 15 14 14 14 14 14 14 14
15 13 11 12 13 15 16 19 19 19 21 23 23 21 20 21 21 21 21 20 20 20 19 18 18 18 18 19 19 19 18 17 16 15 15 15 14 14 14 14 15 14 14 14 14 14 14 14 14
14 11 11 12 14 14 17 19 19 18 19 22 23 19 19 20 20 20 20 19 19 19 19 18 18 18 18 18 19 19 19 18 17 16 15 15 14 14 14 14 14 14 14 14 14 14 14 14 14
15 11 13 13 13 14 17 19 20 20 20 23 22 19 19 20 19 19 19 18 18 18 18 18 18 17 17 18 18 18 18 18 17 17 16 15 14 14 14 14 14 14 14 14 14 14 14 14 13
14 11 11 13 14 15 18 18 20 21 21 22 22 22 22 20 19 18 18 18 17 17 17 17 17 17 17 17 17 18 18 18 17 17 16 15 14 14 14 14 14 14 14 14 14 13 13 13 13
13 10 12 14 15 16 17 18 18 20 20 20 21 21 21 20 19 19 18 18 18 17 17 17 17 17 17 17 17 17 17 18 17 17 16 15 15 14 14 14 14 14 14 13 13 13 13 13 13
12 11 13 15 16 16 17 17 18 18 18 19 19 20 20 20 19 19 19 19 19 18 18 17 17 17 17 17 17 17 17 17 17 17 16 15 15 14 14 14 14 14 14 13 13 13 13 13 13
12 13 15 16 16 16 16 16 16 17 18 18 18 19 19 19 19 19 19 19 19 19 18 18 17 17 17 17 17 17 17 17 17 17 16 15 15 15 14 14 14 14 13 13 13 13 12 12 12
12 13 15 15 15 16 16 16 16 16 18 18 18 18 18 18 19 19 19 19 19 19 19 18 18 17 17 17 16 16 16 17 17 17 16 16 15 15 14 14 13 13 13 13 12 12 12 12 12
13 13 14 14 15 15 15 15 15 16 18 18 18 18 18 18 18 18 18 18 18 18 18 18 18 18 17 17 17 17 16 16 16 16 16 16 15 15 14 13 13 13 12 12 12 12 12 12 12
13 13 13 13 14 14 15 13 13 16 17 17 18 18 18 18 18 19 19 19 19 18 18 18 18 18 18 18 18 17 17 16 16 16 15 15 15 15 14 13 13 13 12 12 12 12 12 12 12
12 12 11 12 13 14 13 12 13 16 16 16 16 17 18 18 19 19 19 19 19 19 18 18 18 18 18 18 18 18 17 16 16 16 15 15 15 14 14 13 13 12 12 12 12 12 12 12 12
11 10 10 11 13 13 12 11 13 15 15 15 15 16 17 17 18 18 19 19 19 19 19 18 18 18 18 18 18 18 17 17 16 16 15 15 14 14 13 13 13 12 12 12 12 12 12 12 12
9 9 10 10 12 12 11 11 12 14 14 14 15 15 16 16 17 18 18 18 18 18 19 19 18 18 18 18 18 18 17 17 16 16 15 15 14 13 13 13 12 12 12 12 12 12 12 12 12
10 10 10 10 11 11 10 10 11 12 12 13 14 15 16 16 17 17 17 18 18 18 18 18 18 18 18 17 17 17 17 16 16 15 15 14 14 13 13 12 12 12 12 12 12 12 12 12 11
10 10 9 9 10 10 9 9 10 11 11 13 13 14 15 16 17 17 17 17 17 17 17 18 18 18 18 17 17 17 18 17 17 16 15 14 14 13 13 12 12 12 12 12 12 12 12 11 11
9 9 9 9 8 8 8 8 9 9 11 12 13 13 14 15 15 16 17 17 17 17 17 17 17 17 17 17 17 17 17 16 16 16 15 15 14 14 13 13 12 12 12 12 12 12 12 11 11
9 9 9 9 7 6 7 6 7 8 9 10 12 14 15 16 16 16 16 16 17 17 17 17 17 17 17 17 17 16 16 16 16 16 16 15 15 14 14 13 13 12 12 12 12 11 11 11 11
8 9 9 8 7 5 5 5 7 7 9 11 11 14 16 17 17 17 16 16 16 16 16 16 16 17 17 17 16 16 16 16 16 16 16 16 15 15 14 13 13 12 12 12 11 11 11 11 11
9 8 7 6 5 5 5 4 6 7 10 11 12 14 16 16 16 16 16 16 16 16 16 16 16 16 16 16 16 16 16 16 16 16 16 16 15 15 14 13 13 12 12 11 11 11 11 10 10
8 6 5 5 6 5 6 5 6 8 9 10 11 13 15 15 15 15 15 15 15 15 15 16 16 16 16 16 16 16 16 16 16 16 16 16 15 15 14 13 12 12 11 11 11 10 10 10 9
7 6 5 6 6 5 6 6 7 9 10 11 12 13 13 13 13 13 14 14 14 14 14 15 15 15 15 15 16 15 15 15 16 16 16 16 15 15 15 13 12 11 11 10 10 10 9 9 8
7 6 6 5 4 4 5 6 7 10 10 10 11 12 12 12 12 12 12 12 13 13 14 14 14 14 15 15 15 15 15 15 15 15 15 15 15 14 13 12 11 11 10 10 9 9 8 8 7
8 6 5 3 4 4 5 5 7 10 10 10 9 10 11 11 11 11 11 11 11 12 12 13 13 14 14 14 14 14 14 14 14 14 14 14 14 13 12 11 10 10 9 8 8 8 7 7 6
7 7 6 4 4 4 5 7 8 10 10 9 9 10 10 10 10 10 10 10 10 11 11 12 13 13 13 13 13 13 13 13 13 13 13 13 12 11 10 10 9 8 8 7 7 6 6 6 5
6 6 5 4 4 3 3 6 9 8 8 9 10 10 9 9 9 9 9 9 9 10 11 11 12 12 12 12 12 12 12 12 12 12 12 11 11 10 9 9 8 7 6 6 5 5 5 4 4
Wind_Speed
9 8 3 4 5 3 5 7 5 6 5 3 3 6 6 3 3 3 4 13 17 16 18 21 21 21 20 19 19 18 19 20 20 19 18 16 14 13 12 11 11 12 13 15 15 15 14 13 11
5 5 5 5 4 2 7 7 6 8 7 5 2 6 5 2 2 7 6 13 19 18 19 19 21 21 20 19 18 18 19 20 20 19 17 16 15 14 13 12 12 12 12 12 13 13 12 11 10
4 3 4 4 5 7 7 6 5 7 7 4 2 5 5 5 5 8 10 18 17 15 18 19 22 21 20 19 18 18 19 20 20 19 18 17 15 14 13 13 13 12 11 11 11 11 11 10 8
3 4 4 3 9 9 8 6 6 10 7 2 3 5 3 1 4 8 18 19 17 12 17 20 22 21 20 19 18 19 20 20 20 19 18 17 16 14 14 13 13 12 11 11 11 10 9 8 6
4 4 3 5 10 8 8 8 6 9 6 2 3 4 2 5 6 15 18 19 18 14 16 20 21 21 20 19 19 20 20 20 20 19 18 17 15 15 14 13 12 11 10 10 10 9 8 6 5
3 4 5 8 10 8 9 8 5 9 8 4 4 6 0 2 9 13 14 15 17 17 16 19 21 20 20 19 19 20 21 21 20 18 17 16 15 15 14 13 12 11 10 9 8 8 8 6 5
5 5 7 7 7 9 12 7 6 9 10 7 6 7 2 3 8 11 12 12 13 14 14 15 18 19 19 19 19 20 21 20 20 18 17 15 14 15 15 13 12 10 9 8 8 8 7 6 5
6 5 6 6 7 8 7 4 5 10 11 5 7 10 7 8 8 10 11 12 12 12 13 12 15 15 16 17 18 19 19 19 19 18 16 15 14 15 16 14 12 10 9 8 8 8 7 6 6
5 4 7 8 8 7 5 5 7 4 4 1 3 8 8 10 10 12 11 10 12 13 12 11 11 13 14 15 17 18 18 18 17 17 17 15 13 14 16 14 13 11 9 9 8 7 6 5 6
5 6 8 5 5 4 4 3 7 5 2 2 4 3 7 10 12 13 15 16 16 16 14 12 12 12 13 14 14 15 15 16 16 16 16 14 13 14 14 15 14 12 10 8 7 6 5 4 6
8 8 6 6 6 4 4 4 5 3 3 2 1 4 5 7 10 13 16 16 17 16 16 15 14 13 13 9 11 11 12 13 14 16 16 14 12 11 12 12 11 11 9 6 5 5 5 5 6
5 6 6 5 6 5 3 2 3 3 5 1 2 3 2 3 7 9 13 15 14 16 17 16 16 14 13 12 10 11 10 10 11 14 16 13 8 8 9 9 10 9 8 6 5 5 6 7 8
6 5 5 5 5 6 6 6 4 7 10 6 2 2 4 5 6 7 7 9 11 15 17 17 17 16 14 11 9 11 10 11 13 14 16 14 8 6 7 8 9 9 8 7 6 7 7 6 7
5 4 5 6 4 4 7 7 5 9 8 9 8 7 8 9 9 8 7 8 10 12 15 17 18 18 16 14 13 10 12 13 14 14 15 17 13 10 8 6 7 8 9 9 8 8 6 4 5
3 2 3 4 4 4 3 10 8 10 9 11 13 12 11 11 10 11 10 10 11 11 12 15 19 18 18 17 15 11 12 13 11 13 17 17 16 14 11 6 6 8 11 11 10 8 6 4 4
4 3 3 5 5 6 6 13 9 10 9 11 12 13 14 13 12 12 12 11 10 10 11 15 16 18 19 17 15 11 12 12 11 14 16 18 18 17 12 7 7 11 13 10 6 5 4 4 3
2 3 5 6 5 5 9 10 9 9 9 11 11 12 13 14 15 13 13 13 12 11 11 14 15 18 19 17 14 12 10 11 11 14 14 16 18 18 14 8 8 13 9 5 6 4 4 3 2
6 5 5 6 4 3 7 9 11 9 8 10 12 12 13 14 17 14 12 13 13 12 11 12 15 17 17 15 11 9 10 11 10 11 12 16 16 18 14 9 10 12 7 6 6 5 3 3 2
5 3 4 5 4 5 7 10 13 12 11 14 16 16 16 16 14 11 10 10 10 10 10 11 13 15 14 12 12 12 13 11 11 9 13 16 16 18 14 9 9 9 8 8 8 5 4 2 2
1 2 4 5 4 4 8 13 13 14 14 17 20 20 19 16 13 12 11 10 9 10 10 10 12 13 14 14 14 12 13 11 11 10 11 16 17 18 15 13 12 10 9 9 7 6 4 2 2
3 4 3 4 7 6 7 11 8 9 9 12 15 16 17 18 17 14 12 12 11 10 11 10 11 12 13 13 9 6 4 3 5 8 11 12 16 17 16 14 13 11 11 11 9 7 7 5 2
3 1 2 2 5 5 4 7 9 8 11 10 10 10 12 14 14 12 11 11 11 11 10 10 10 10 12 12 11 12 11 10 10 11 10 10 12 15 17 16 14 14 11 11 10 7 5 6 4
5 5 5 3 3 5 2 4 11 8 8 10 9 9 10 10 9 9 9 9 9 9 8 8 9 9 10 12 15 16 14 11 7 7 10 10 10 11 13 15 13 14 11 12 10 8 7 5 5
7 6 6 5 4 5 5 6 8 6 7 8 9 9 8 7 5 5 5 4 5 5 5 6 7 8 9 11 14 17 16 12 11 10 11 10 7 8 11 12 12 12 11 12 11 9 9 6 5
6 5 3 3 2 7 4 5 10 12 10 9 11 9 6 4 2 3 3 3 3 4 4 4 5 7 8 10 13 15 16 18 18 15 15 13 10 7 13 12 12 11 11 11 10 9 8 8 8
6 7 6 5 4 6 4 7 9 10 8 6 5 6 7 7 6 6 5 5 5 5 4 4 5 6 7 9 11 12 14 13 12 14 14 14 12 10 12 11 11 11 11 11 10 9 8 7 7
7 5 5 3 2 4 7 8 10 5 3 6 9 10 11 10 10 9 8 7 7 6 6 6 6 7 7 8 9 10 12 12 12 12 10 9 8 8 11 11 11 11 10 10 11 8 8 8 6
5 6 5 4 2 5 7 6 5 6 6 7 8 10 11 12 12 12 10 9 8 7 7 6 6 7 8 7 8 9 10 11 12 12 12 11 11 11 13 12 12 11 10 10 9 8 8 7 5
5 4 4 4 4 3 5 8 6 4 5 6 8 11 12 14 15 13 12 10 9 8 6 6 6 5 5 6 7 9 10 10 12 12 13 12 12 14 14 14 13 12 11 9 8 7 7 7 5
6 6 6 4 4 4 3 9 8 7 7 9 14 16 15 15 14 12 10 9 8 8 7 6 6 5 5 6 7 9 10 11 11 11 12 13 14 14 14 14 13 12 11 9 9 8 6 6 5
Wind_Direction
320 354 51 53 54 46 252 248 242 285 288 244 186 135 131 131 176 179 124 142 140 148 154 154 150 146 142 139 139 140 141 141 138 134 130 126 121 117 115 115 113 106 100 102 106 107 107 106 103
349 18 54 63 104 211 256 245 256 250 236 232 179 116 107 111 149 124 127 149 146 149 152 155 152 148 145 143 143 145 146 145 141 137 133 129 124 122 122 121 119 115 110 107 106 107 108 108 106
350 49 85 97 163 199 233 233 265 300 261 220 87 78 114 162 166 155 152 146 144 147 151 157 154 151 148 147 147 148 150 148 144 141 137 133 130 128 127 126 124 122 120 116 113 111 111 110 108
61 65 72 131 223 225 227 248 325 314 292 260 96 60 77 223 192 154 143 145 144 144 149 159 156 155 152 151 151 152 152 150 147 145 143 139 136 134 133 131 131 130 128 124 120 118 117 115 112
69 99 139 224 239 250 254 264 274 278 274 255 119 106 30 349 111 133 144 147 148 147 151 161 159 158 156 155 154 155 154 153 151 150 149 148 145 143 142 142 141 140 136 132 129 127 125 122 113
82 92 151 221 240 261 266 257 258 260 264 264 138 118 25 57 120 139 148 151 152 152 155 163 163 162 160 160 159 158 158 157 157 157 156 155 154 153 154 154 153 151 146 141 138 134 130 126 112
139 140 188 209 231 255 260 259 232 242 248 234 152 118 161 184 155 143 147 148 152 153 157 162 165 165 165 164 163 163 162 161 161 162 161 160 161 163 163 163 163 161 156 151 145 139 134 124 102
162 149 199 210 214 243 258 273 250 225 226 222 136 139 177 201 166 130 135 143 153 158 162 162 164 166 167 168 169 168 166 166 166 164 161 164 170 172 169 170 171 168 162 155 148 141 132 113 85
131 138 208 209 199 236 277 310 296 252 200 161 135 167 180 158 138 123 131 147 163 168 169 166 164 167 168 170 174 171 170 170 167 163 165 168 172 171 172 174 173 169 164 159 150 140 128 100 66
148 187 218 220 201 235 306 318 316 319 220 82 52 108 127 141 148 146 156 167 174 178 179 176 173 171 170 176 175 174 174 174 169 169 170 171 168 168 171 175 173 171 169 163 152 137 125 91 67
174 195 219 260 280 289 300 323 339 328 255 40 90 178 154 158 169 167 170 175 180 181 183 184 181 177 176 177 174 178 177 176 176 177 178 174 170 171 170 172 174 173 167 156 137 112 107 101 88
200 216 203 237 268 277 263 288 322 261 243 315 350 310 257 200 202 195 182 183 182 182 189 186 185 183 183 180 181 183 182 183 185 188 187 177 175 175 174 176 176 174 169 155 138 121 110 104 97
234 253 254 251 267 254 239 233 240 252 265 280 245 215 244 245 237 236 224 204 189 189 192 190 188 187 185 183 184 187 190 191 192 194 196 187 180 179 178 181 180 180 170 154 139 127 118 106 92
210 225 279 284 264 240 239 249 229 249 265 292 290 263 240 240 243 243 234 225 212 205 199 193 192 192 187 188 189 189 192 193 194 198 198 192 186 181 178 176 179 178 168 155 144 135 122 102 92
139 112 324 271 240 233 264 270 233 242 266 280 283 277 264 246 241 240 236 226 215 212 206 198 197 194 192 192 192 190 192 192 194 199 201 195 189 183 179 174 173 169 158 143 130 119 105 91 81
115 106 265 275 243 223 201 259 258 251 255 265 272 276 272 262 244 239 243 242 229 212 208 205 203 198 197 195 194 193 191 191 194 196 199 197 190 182 175 171 169 160 150 142 130 124 101 89 87
125 180 226 276 258 230 208 249 260 253 240 254 264 270 271 271 263 247 241 243 245 227 210 206 206 200 200 199 195 194 189 191 193 194 194 193 186 177 170 167 161 154 145 139 136 121 121 118 114
188 197 225 247 313 303 238 251 271 283 266 260 262 264 265 264 263 257 247 241 241 239 222 210 207 205 202 200 195 192 191 192 191 192 191 184 181 173 166 161 157 152 142 138 132 125 104 112 126
150 167 239 260 332 334 284 276 274 275 273 268 266 264 261 260 260 261 257 251 247 245 234 219 211 209 203 198 195 194 198 197 194 193 187 181 176 171 165 161 158 156 155 154 143 125 118 110 122
210 248 271 288 338 331 292 284 271 261 254 251 254 257 259 261 266 259 254 251 243 240 237 224 215 212 206 204 200 199 198 197 194 188 184 182 176 173 171 165 167 162 151 149 152 140 131 124 123
196 208 241 294 340 356 334 299 281 279 268 260 253 253 254 253 256 256 253 251 249 245 240 234 219 214 210 206 198 186 169 148 173 186 188 185 178 175 172 170 166 166 162 167 167 156 147 149 136
171 126 139 46 22 320 6 304 293 291 303 292 282 270 260 256 253 252 250 251 248 246 244 240 232 219 210 202 195 184 187 189 191 191 187 179 178 177 173 171 168 169 167 167 170 160 152 143 151
149 107 83 70 51 327 257 237 285 302 291 293 295 288 276 268 259 257 252 248 250 250 250 249 243 231 215 204 200 199 201 195 180 171 169 172 174 176 173 171 168 168 167 166 163 157 152 147 154
123 66 43 51 60 292 227 195 281 268 255 302 318 317 306 297 285 272 270 265 267 269 266 264 257 248 227 210 204 202 198 177 165 170 174 173 168 171 174 171 168 167 165 165 162 156 154 148 143
99 87 40 344 272 259 221 206 254 261 268 276 293 303 307 311 311 305 303 297 285 286 279 266 258 259 243 218 210 206 198 183 181 179 179 174 173 177 180 172 168 166 162 157 152 148 147 143 141
144 137 165 213 248 290 291 239 255 268 287 296 314 333 341 340 333 313 296 280 274 274 274 273 264 259 248 225 214 206 194 187 186 181 177 180 182 177 169 162 158 155 154 152 145 141 137 133 134
145 171 164 131 333 288 282 288 296 275 340 1 6 5 354 339 327 314 305 295 285 276 264 255 254 256 247 226 209 196 184 177 173 169 163 160 149 148 150 149 148 148 147 145 141 139 133 131 128
135 145 120 136 194 283 290 273 260 293 332 346 353 347 335 328 319 310 303 295 287 280 274 270 257 250 241 217 197 187 177 168 161 157 157 153 148 148 149 147 146 143 140 138 132 130 129 126 126
157 161 154 150 169 200 291 277 230 255 292 313 324 323 322 317 310 303 299 296 293 290 288 285 274 262 235 204 184 167 161 153 153 156 154 150 146 147 149 146 143 140 134 130 125 122 126 127 129
170 179 154 165 226 206 232 274 270 272 284 306 316 316 314 308 303 298 293 299 303 301 301 300 282 255 224 188 165 155 147 145 146 146 145 144 143 143 142 140 136 132 126 121 122 125 123 127 132
Height
1525 1526 1526 1527 1530 1538 1538 1526 1516 1512 1508 1505 1503 1503 1504 1506 1509 1513 1509 1508 1511 1513 1515 1517 1519 1521 1523 1524 1525 1527 1528 1529 1529 1530 1531 1532 1532 1532 1532 1532 1533 1534 1535 1536 1536 1537 1538 1538 1538
1523 1525 1527 1526 1535 1544 1537 1521 1514 1509 1505 1503 1502 1502 1503 1505 1505 1506 1506 1509 1511 1513 1515 1517 1519 1521 1523 1524 1525 1526 1527 1528 1529 1530 1531 1532 1532 1532 1532 1532 1533 1534 1535 1536 1537 1538 1538 1538 1538
1521 1523 1525 1528 1536 1538 1527 1514 1509 1504 1502 1501 1499 1500 1503 1504 1504 1505 1506 1508 1511 1513 1515 1517 1519 1521 1523 1524 1525 1526 1527 1528 1529 1530 1531 1532 1532 1533 1533 1533 1534 1534 1536 1537 1538 1538 1539 1539 1539
1519 1522 1524 1530 1530 1522 1515 1509 1508 1506 1503 1499 1498 1500 1503 1505 1505 1505 1506 1508 1510 1513 1515 1517 1519 1521 1523 1524 1525 1526 1527 1528 1529 1530 1531 1532 1533 1534 1534 1534 1535 1535 1536 1537 1538 1539 1539 1540 1540
1517 1519 1525 1529 1525 1516 1509 1508 1509 1508 1503 1499 1498 1500 1502 1504 1504 1505 1505 1507 1510 1512 1515 1517 1519 1521 1523 1524 1525 1526 1527 1528 1530 1531 1532 1533 1534 1535 1535 1536 1536 1537 1538 1539 1539 1540 1541 1541 1541
1516 1517 1528 1529 1520 1512 1506 1505 1507 1506 1502 1499 1498 1500 1502 1503 1504 1506 1507 1508 1510 1512 1514 1517 1519 1521 1523 1524 1525 1526 1527 1528 1530 1531 1532 1533 1534 1535 1536 1537 1538 1538 1539 1540 1540 1541 1541 1542 1542
1514 1518 1522 1520 1517 1513 1504 1503 1505 1503 1500 1497 1496 1499 1502 1503 1504 1506 1508 1509 1511 1513 1514 1516 1518 1521 1523 1524 1525 1526 1527 1528 1530 1531 1532 1533 1535 1536 1537 1538 1539 1539 1540 1541 1541 1542 1542 1542 1542
1510 1514 1516 1516 1514 1510 1501 1501 1500 1498 1496 1495 1495 1496 1500 1502 1504 1506 1508 1510 1511 1513 1514 1516 1518 1520 1522 1523 1525 1526 1527 1528 1529 1531 1532 1533 1535 1536 1537 1538 1539 1540 1541 1541 1541 1542 1542 1542 1541
1507 1515 1515 1510 1509 1505 1499 1499 1497 1494 1493 1493 1492 1493 1496 1500 1503 1505 1507 1509 1510 1512 1514 1515 1517 1519 1521 1522 1524 1525 1526 1528 1529 1530 1531 1533 1534 1535 1537 1538 1539 1540 1540 1541 1541 1541 1541 1541 1541
1504 1511 1507 1501 1500 1499 1498 1498 1497 1494 1492 1492 1492 1492 1495 1498 1501 1502 1504 1506 1508 1510 1512 1514 1515 1517 1519 1520 1522 1523 1525 1526 1527 1529 1530 1531 1533 1534 1536 1537 1538 1539 1540 1540 1541 1541 1541 1541 1541
1500 1503 1500 1498 1497 1498 1498 1497 1497 1495 1494 1493 1493 1493 1494 1497 1499 1500 1501 1503 1505 1508 1510 1512 1514 1515 1517 1518 1520 1521 1523 1524 1526 1527 1529 1530 1531 1533 1534 1535 1537 1538 1538 1539 1539 1540 1540 1540 1540
1497 1496 1496 1497 1498 1497 1497 1497 1496 1495 1494 1494 1495 1495 1495 1496 1497 1498 1499 1501 1503 1505 1507 1509 1511 1512 1514 1516 1517 1519 1520 1522 1523 1525 1527 1528 1529 1530 1532 1533 1535 1536 1537 1538 1538 1539 1539 1539 1539
1495 1494 1494 1495 1496 1496 1496 1495 1494 1492 1492 1491 1492 1494 1495 1496 1497 1498 1499 1501 1502 1503 1504 1506 1508 1509 1511 1513 1514 1516 1517 1519 1521 1523 1524 1525 1527 1528 1530 1532 1533 1535 1536 1537 1537 1538 1538 1538 1538
1492 1493 1493 1493 1493 1494 1493 1491 1491 1488 1489 1488 1488 1489 1491 1493 1494 1495 1496 1498 1499 1500 1501 1503 1504 1506 1507 1509 1510 1512 1514 1516 1518 1519 1521 1523 1524 1526 1528 1530 1531 1533 1534 1535 1536 1537 1537 1537 1536
1490 1492 1493 1491 1491 1490 1491 1489 1486 1485 1486 1484 1483 1483 1485 1486 1488 1489 1491 1493 1495 1497 1498 1499 1501 1502 1503 1505 1506 1508 1510 1512 1514 1516 1518 1520 1521 1523 1525 1527 1529 1531 1532 1533 1534 1535 1535 1536 1535
1490 1494 1497 1491 1488 1487 1493 1488 1482 1482 1481 1480 1479 1478 1478 1479 1480 1483 1485 1487 1489 1491 1493 1495 1497 1498 1499 1500 1502 1504 1506 1508 1510 1512 1514 1516 1518 1520 1522 1524 1526 1528 1530 1531 1532 1533 1534 1534 1533
1492 1498 1498 1493 1486 1485 1488 1485 1478 1477 1478 1477 1475 1474 1473 1472 1472 1475 1478 1480 1483 1485 1487 1489 1491 1492 1494 1496 1498 1500 1502 1504 1506 1508 1510 1512 1514 1517 1519 1521 1524 1525 1527 1529 1530 1531 1532 1532 1531
1496 1497 1496 1493 1486 1485 1485 1483 1477 1474 1475 1473 1471 1469 1468 1466 1466 1468 1471 1473 1476 1478 1481 1482 1484 1486 1489 1491 1494 1495 1497 1499 1501 1503 1506 1508 1510 1513 1515 1518 1520 1522 1524 1526 1528 1529 1529 1530 1529
1489 1492 1494 1491 1486 1486 1484 1481 1476 1471 1471 1468 1465 1463 1461 1460 1461 1463 1465 1467 1469 1471 1473 1475 1477 1479 1482 1484 1486 1488 1491 1493 1495 1498 1500 1504 1506 1509 1511 1514 1517 1519 1521 1523 1525 1526 1527 1527 1527
1488 1492 1493 1491 1487 1486 1485 1479 1471 1465 1462 1459 1458 1456 1455 1454 1455 1456 1459 1461 1463 1464 1465 1467 1469 1472 1474 1476 1478 1481 1484 1486 1489 1492 1495 1498 1501 1504 1506 1509 1512 1515 1517 1520 1521 1523 1523 1524 1524
1489 1492 1492 1492 1490 1488 1488 1478 1469 1458 1454 1451 1450 1448 1448 1448 1447 1449 1452 1454 1456 1457 1459 1461 1462 1464 1467 1469 1473 1476 1479 1481 1483 1486 1489 1492 1494 1497 1500 1504 1507 1510 1513 1515 1517 1519 1520 1521 1521
1491 1489 1490 1492 1497 1500 1497 1495 1472 1462 1455 1448 1444 1443 1442 1442 1442 1443 1445 1447 1449 1451 1453 1454 1455 1457 1459 1462 1464 1466 1468 1470 1473 1478 1482 1485 1488 1492 1495 1498 1501 1504 1507 1510 1513 1515 1516 1517 1517
1489 1489 1491 1494 1499 1505 1501 1503 1478 1465 1457 1447 1442 1440 1439 1439 1440 1441 1442 1443 1444 1445 1446 1447 1448 1449 1451 1454 1456 1458 1461 1464 1468 1472 1475 1479 1482 1485 1488 1492 1495 1498 1501 1505 1508 1510 1511 1512 1513
1487 1491 1495 1500 1505 1510 1499 1504 1485 1467 1456 1449 1444 1441 1439 1439 1438 1439 1439 1440 1440 1440 1440 1441 1441 1442 1444 1446 1447 1449 1452 1456 1460 1463 1467 1471 1475 1478 1482 1485 1489 1492 1495 1499 1502 1505 1506 1508 1509
1488 1500 1510 1508 1506 1505 1492 1495 1480 1458 1452 1451 1447 1443 1440 1439 1438 1437 1437 1437 1436 1436 1435 1435 1435 1436 1437 1438 1439 1441 1444 1447 1451 1456 1460 1464 1467 1471 1474 1478 1481 1485 1489 1493 1496 1499 1501 1503 1504
1490 1498 1509 1508 1506 1500 1488 1486 1468 1453 1450 1448 1445 1442 1440 1439 1438 1436 1435 1434 1432 1431 1431 1431 1430 1430 1431 1432 1432 1434 1436 1439 1444 1449 1453 1457 1461 1464 1468 1471 1475 1479 1484 1487 1490 1493 1496 1498 1499
1490 1496 1499 1507 1510 1509 1495 1482 1464 1449 1448 1446 1444 1441 1440 1439 1437 1435 1432 1430 1428 1426 1426 1425 1425 1425 1425 1425 1426 1426 1428 1432 1436 1441 1446 1450 1454 1458 1461 1465 1470 1474 1478 1482 1485 1488 1490 1493 1494
1487 1491 1501 1511 1512 1507 1495 1485 1470 1453 1450 1447 1445 1442 1440 1437 1434 1431 1428 1425 1423 1421 1420 1419 1419 1419 1418 1419 1419 1420 1422 1425 1430 1435 1439 1444 1448 1451 1456 1460 1465 1469 1473 1477 1480 1484 1486 1488 1490
1489 1491 1495 1504 1509 1509 1501 1477 1456 1451 1449 1448 1445 1441 1438 1435 1431 1427 1423 1421 1418 1416 1415 1414 1413 1413 1413 1413 1414 1415 1417 1420 1425 1429 1434 1438 1442 1447 1451 1455 1460 1465 1469 1473 1477 1480 1482 1484 1486
1485 1488 1494 1505 1506 1506 1507 1478 1450 1450 1447 1445 1442 1438 1435 1430 1426 1421 1418 1416 1413 1411 1410 1408 1408 1407 1407 1408 1409 1410 1413 1416 1421 1425 1429 1433 1438 1442 1446 1451 1456 1461 1466 1470 1474 1477 1479 1481 1483